This demonstration page uses our WeatherBlox Daily Observations layout. Learn more.

Hourly Observations for November 20, 2015

Temp ( °F °C ) Dew Point ( °F °C ) Humidity (%) Winds ( mph kmh ) Pressure ( in mb ) Visibility ( mi km ) Precip ( " mm )
12:15 am 00:15 Mostly Cloudy 36 2 27 -3 70 70 SSE 8 13 30.15 1021 10 16.09344 0 0
12:35 am 00:35 Cloudy 36 2 25 -4 65 65 S 10 17 30.15 1021 10 16.09344 0 0
12:55 am 00:55 Cloudy 36 2 25 -4 65 65 S 9 15 30.15 1021 10 16.09344 0 0
1:15 am 01:15 Cloudy 36 2 25 -4 65 65 S 9 15 30.12 1020 10 16.09344 0 0
1:35 am 01:35 Cloudy 37 3 25 -4 60 60 S 9 15 30.09 1019 10 16.09344 0 0
1:55 am 01:55 Mostly Cloudy 37 3 25 -4 60 60 S 10 17 30.09 1019 10 16.09344 0 0
2:15 am 02:15 Partly Cloudy 37 3 25 -4 60 60 S 13 20 30.06 1018 10 16.09344 0 0
2:35 am 02:35 Partly Cloudy 37 3 25 -4 60 60 S 12 19 30.06 1018 10 16.09344 0 0
2:55 am 02:55 Mostly Cloudy 37 3 25 -4 60 60 S 9 15 30.06 1018 10 16.09344 0 0
3:15 am 03:15 Partly Cloudy 37 3 25 -4 60 60 S 9 15 30.06 1018 10 16.09344 0 0
3:35 am 03:35 Partly Cloudy 37 3 25 -4 60 60 S 12 19 30.06 1018 10 16.09344 0 0
3:55 am 03:55 Clear 37 3 25 -4 60 60 SSE 12 19 30.03 1017 10 16.09344 0 0
4:15 am 04:15 Clear 36 2 25 -4 65 65 S 12 19 30.06 1018 10 16.09344 0 0
4:35 am 04:35 Partly Cloudy 36 2 25 -4 65 65 SSE 9 15 30.03 1017 10 16.09344 0 0
4:55 am 04:55 Clear 36 2 25 -4 65 65 SSE 8 13 30.03 1017 10 16.09344 0 0
5:15 am 05:15 Clear 36 2 25 -4 65 65 SSE 8 13 29.97 1015 10 16.09344 0 0
5:35 am 05:35 Clear 36 2 25 -4 65 65 SSE 12 19 29.97 1015 10 16.09344 0 0
5:55 am 05:55 Mostly Cloudy 36 2 23 -5 60 60 S 13 20 29.97 1015 10 16.09344 0 0
6:15 am 06:15 Cloudy 36 2 25 -4 65 65 S 10 17 29.97 1015 10 16.09344 0 0
6:35 am 06:35 Cloudy 36 2 23 -5 60 60 Calm 30.03 1017 10 16.09344 0 0
6:55 am 06:55 Partly Cloudy 36 2 23 -5 60 60 SSE 5 7 30.03 1017 10 16.09344 0 0
7:15 am 07:15 Partly Cloudy 34 1 25 -4 70 70 SSE 8 13 30 1016 10 16.09344 0 0
7:35 am 07:35 Partly Cloudy 34 1 25 -4 70 70 SSE 8 13 30 1016 10 16.09344 0 0
7:55 am 07:55 Mostly Cloudy 34 1 27 -3 75 75 SSE 12 19 30 1016 10 16.09344 0 0
8:15 am 08:15 Cloudy 36 2 25 -4 65 65 SSE 12 19 29.97 1015 10 16.09344 0 0
8:35 am 08:35 Cloudy 36 2 27 -3 70 70 SSE 15 24 29.91 1013 10 16.09344 0 0
8:55 am 08:55 Cloudy 36 2 27 -3 70 70 SSE 13 20 29.94 1014 10 16.09344 0 0
9:15 am 09:15 Cloudy 36 2 25 -4 65 65 SSE 14 22 29.91 1013 10 16.09344 0 0
9:35 am 09:35 Cloudy 37 3 25 -4 60 60 SSE 15 24 29.91 1013 10 16.09344 0 0
9:55 am 09:55 Mostly Cloudy 37 3 25 -4 60 60 S 15 24 29.88 1012 10 16.09344 0 0
10:15 am 10:15 Partly Cloudy 39 4 27 -3 61 61 S 13 20 29.88 1012 10 16.09344 0 0
10:35 am 10:35 Sunny 41 5 28 -2 61 61 S 17 28 29.85 1011 10 16.09344 0 0
10:55 am 10:55 Sunny 45 7 28 -2 53 53 S 15 24 29.85 1011 10 16.09344 0 0
11:15 am 11:15 Sunny 45 7 28 -2 53 53 S 17 28 29.83 1010 10 16.09344 0 0
11:35 am 11:35 Sunny 45 7 30 -1 57 57 SSW 15 24 29.83 1010 10 16.09344 0 0
11:55 am 11:55 Partly Cloudy 46 8 30 -1 53 53 SSW 13 20 29.8 1009 10 16.09344 0 0
12:15 pm 12:15 Partly Cloudy 48 9 30 -1 50 50 SSW 9 15 29.8 1009 10 16.09344 0 0
12:35 pm 12:35 Mostly Cloudy 46 8 30 -1 53 53 W 10 17 29.83 1010 10 16.09344 0 0
12:55 pm 12:55 Mostly Cloudy 46 8 32 0 57 57 NW 14 22 29.83 1010 10 16.09344 0 0
1:15 pm 13:15 Partly Cloudy 45 7 32 0 61 61 NW 14 22 29.85 1011 10 16.09344 0 0
1:35 pm 13:35 Partly Cloudy 45 7 32 0 61 61 NW 15 24 29.88 1012 10 16.09344 0 0
1:55 pm 13:55 Partly Cloudy 45 7 32 0 61 61 NNW 15 24 29.85 1011 10 16.09344 0 0
2:15 pm 14:15 Partly Cloudy 45 7 30 -1 57 57 N 14 22 29.85 1011 10 16.09344 0 0
2:35 pm 14:35 Partly Cloudy 45 7 30 -1 57 57 N 16 26 29.91 1013 10 16.09344 0 0
2:55 pm 14:55 Mostly Cloudy 43 6 30 -1 61 61 NNW 13 20 29.91 1013 10 16.09344 0 0
3:15 pm 15:15 Cloudy 39 4 32 0 75 75 N 23 37 29.97 1015 10 16.09344 0 0
3:35 pm 15:35 Cloudy 37 3 30 -1 75 75 N 21 33 30 1016 10 16.09344 0 0
3:55 pm 15:55 Cloudy 36 2 30 -1 81 81 N 21 33 30.06 1018 10 16.09344 0 0
4:15 pm 16:15 Cloudy 36 2 30 -1 81 81 N 16 26 30.06 1018 10 16.09344 0 0
4:35 pm 16:35 Cloudy 34 1 28 -2 81 81 N 24 39 30.09 1019 10 16.09344 0 0
4:55 pm 16:55 Cloudy 34 1 28 -2 81 81 N 25 41 30.09 1019 10 16.09344 0 0
5:15 pm 17:15 Cloudy 32 0 27 -3 80 80 N 31 50 30.12 1020 10 16.09344 0 0
5:35 pm 17:35 Cloudy 32 0 27 -3 80 80 N 30 48 30.12 1020 10 16.09344 0 0
5:55 pm 17:55 Cloudy 32 0 27 -3 80 80 N 26 43 30.18 1022 10 16.09344 0 0
6:15 pm 18:15 Cloudy 30 -1 27 -3 86 86 N 25 41 30.21 1023 10 16.09344 0 0
6:35 pm 18:35 Cloudy 30 -1 25 -4 80 80 N 24 39 30.24 1024 10 16.09344 0 0
6:55 pm 18:55 Cloudy 30 -1 25 -4 80 80 N 28 44 30.24 1024 10 16.09344 0 0
7:15 pm 19:15 Cloudy 30 -1 25 -4 80 80 N 31 50 30.24 1024 10 16.09344 0 0
7:35 pm 19:35 Cloudy 30 -1 25 -4 80 80 N 28 44 30.24 1024 10 16.09344 0 0
7:55 pm 19:55 Mostly Cloudy 28 -2 23 -5 80 80 N 25 41 30.24 1024 10 16.09344 0 0
8:15 pm 20:15 Mostly Cloudy 28 -2 23 -5 80 80 N 26 43 30.27 1025 10 16.09344 0 0
8:35 pm 20:35 Partly Cloudy 28 -2 23 -5 80 80 N 24 39 30.33 1027 10 16.09344 0 0
8:55 pm 20:55 Partly Cloudy 28 -2 23 -5 80 80 N 23 37 30.33 1027 10 16.09344 0 0
9:15 pm 21:15 Cloudy 30 -1 25 -4 80 80 N 21 33 30.33 1027 10 16.09344 0 0
9:35 pm 21:35 Cloudy 30 -1 25 -4 80 80 N 20 31 30.33 1027 10 16.09344 0 0
9:55 pm 21:55 Cloudy 30 -1 25 -4 80 80 N 23 37 30.36 1028 10 16.09344 0 0
10:15 pm 22:15 Cloudy 30 -1 25 -4 80 80 N 21 33 30.42 1030 10 16.09344 0 0
10:35 pm 22:35 Cloudy 30 -1 25 -4 80 80 N 18 30 30.42 1030 10 16.09344 0 0
10:55 pm 22:55 Cloudy 30 -1 25 -4 80 80 N 22 35 30.45 1031 10 16.09344 0 0
11:15 pm 23:15 Cloudy 30 -1 25 -4 80 80 N 23 37 30.42 1030 10 16.09344 0 0
11:35 pm 23:35 Cloudy 28 -2 23 -5 80 80 N 21 33 30.42 1030 10 16.09344 0 0
11:55 pm 23:55 Cloudy 28 -2 23 -5 80 80 N 13 20 30.45 1031 10 16.09344 0 0

Powered by AerisWeather